Year,Month,Day,Hour,Minute,Value (Times are PST for temperature in C)
2016,07,14,00,00,13.40
2016,07,14,00,01,13.40
2016,07,14,00,02,13.40
2016,07,14,00,03,13.30
2016,07,14,00,04,13.30
2016,07,14,00,05,13.30
2016,07,14,00,06,13.30
2016,07,14,00,07,13.30
2016,07,14,00,08,13.30
2016,07,14,00,09,13.30
2016,07,14,00,10,13.30
2016,07,14,00,11,13.20
2016,07,14,00,12,13.20
2016,07,14,00,13,13.20
2016,07,14,00,14,13.20
2016,07,14,00,15,13.20
2016,07,14,00,16,13.20
2016,07,14,00,17,13.20
2016,07,14,00,18,13.10
2016,07,14,00,19,13.10
2016,07,14,00,20,13.10
2016,07,14,00,21,13.10
2016,07,14,00,22,13.10
2016,07,14,00,23,13.10
2016,07,14,00,24,13.10
2016,07,14,00,25,13.10
2016,07,14,00,26,13.10
2016,07,14,00,27,13.10
2016,07,14,00,28,13.10
2016,07,14,00,29,13.10
2016,07,14,00,30,13.10
2016,07,14,00,31,13.00
2016,07,14,00,32,13.00
2016,07,14,00,33,13.00
2016,07,14,00,34,13.00
2016,07,14,00,35,13.00
2016,07,14,00,36,13.00
2016,07,14,00,37,13.00
2016,07,14,00,38,12.90
2016,07,14,00,39,13.00
2016,07,14,00,40,12.90
2016,07,14,00,41,12.90
2016,07,14,00,42,12.90
2016,07,14,00,43,12.90
2016,07,14,00,44,12.90
2016,07,14,00,45,12.90
2016,07,14,00,46,12.90
2016,07,14,00,47,12.80
2016,07,14,00,48,12.80
2016,07,14,00,49,12.80
2016,07,14,00,50,12.80
2016,07,14,00,51,12.80
2016,07,14,00,52,12.80
2016,07,14,00,53,12.80
2016,07,14,00,54,12.80
2016,07,14,00,55,12.70
2016,07,14,00,56,12.70
2016,07,14,00,57,12.70
2016,07,14,00,58,12.70
2016,07,14,00,59,12.70
2016,07,14,01,00,12.70
2016,07,14,01,01,12.60
2016,07,14,01,02,12.60
2016,07,14,01,03,12.60
2016,07,14,01,04,12.60
2016,07,14,01,05,12.60
2016,07,14,01,06,12.60
2016,07,14,01,07,12.50
2016,07,14,01,08,12.50
2016,07,14,01,09,12.50
2016,07,14,01,10,12.50
2016,07,14,01,11,12.40
2016,07,14,01,12,12.40
2016,07,14,01,13,12.40
2016,07,14,01,14,12.40
2016,07,14,01,15,12.40
2016,07,14,01,16,12.40
2016,07,14,01,17,12.40
2016,07,14,01,18,12.30
2016,07,14,01,19,12.30
2016,07,14,01,20,12.30
2016,07,14,01,21,12.30
2016,07,14,01,22,12.30
2016,07,14,01,23,12.30
2016,07,14,01,24,12.30
2016,07,14,01,25,12.20
2016,07,14,01,26,12.20
2016,07,14,01,27,12.20
2016,07,14,01,28,12.20
2016,07,14,01,29,12.20
2016,07,14,01,30,12.20
2016,07,14,01,31,12.20
2016,07,14,01,32,12.20
2016,07,14,01,33,12.20
2016,07,14,01,34,12.20
2016,07,14,01,35,12.20
2016,07,14,01,36,12.10
2016,07,14,01,37,12.10
2016,07,14,01,38,12.10
2016,07,14,01,39,12.10
2016,07,14,01,40,12.10
2016,07,14,01,41,12.10
2016,07,14,01,42,12.10
2016,07,14,01,43,12.10
2016,07,14,01,44,12.10
2016,07,14,01,45,12.10
2016,07,14,01,46,12.10
2016,07,14,01,47,12.10
2016,07,14,01,48,12.10
2016,07,14,01,49,12.10
2016,07,14,01,50,12.10
2016,07,14,01,51,12.00
2016,07,14,01,52,12.00
2016,07,14,01,53,12.00
2016,07,14,01,54,12.00
2016,07,14,01,55,12.00
2016,07,14,01,56,12.00
2016,07,14,01,57,12.00
2016,07,14,01,58,12.00
2016,07,14,01,59,12.00
2016,07,14,02,00,12.00
2016,07,14,02,01,12.00
2016,07,14,02,02,12.00
2016,07,14,02,03,12.00
2016,07,14,02,04,12.00
2016,07,14,02,05,12.10
2016,07,14,02,06,12.10
2016,07,14,02,07,12.10
2016,07,14,02,08,12.10
2016,07,14,02,09,12.10
2016,07,14,02,10,12.10
2016,07,14,02,11,12.20
2016,07,14,02,12,12.20
2016,07,14,02,13,12.20
2016,07,14,02,14,12.20
2016,07,14,02,15,12.30
2016,07,14,02,16,12.30
2016,07,14,02,17,12.30
2016,07,14,02,18,12.30
2016,07,14,02,19,12.30
2016,07,14,02,20,12.40
2016,07,14,02,21,12.40
2016,07,14,02,22,12.40
2016,07,14,02,23,12.40
2016,07,14,02,24,12.50
2016,07,14,02,25,12.50
2016,07,14,02,26,12.50
2016,07,14,02,27,12.50
2016,07,14,02,28,12.60
2016,07,14,02,29,12.60
2016,07,14,02,30,12.60
2016,07,14,02,31,12.60
2016,07,14,02,32,12.60
2016,07,14,02,33,12.70
2016,07,14,02,34,12.70
2016,07,14,02,35,12.70
2016,07,14,02,36,12.70
2016,07,14,02,37,12.70
2016,07,14,02,38,12.70
2016,07,14,02,39,12.70
2016,07,14,02,40,12.70
2016,07,14,02,41,12.80
2016,07,14,02,42,12.80
2016,07,14,02,43,12.80
2016,07,14,02,44,12.80
2016,07,14,02,45,12.80
2016,07,14,02,46,12.80
2016,07,14,02,47,12.80
2016,07,14,02,48,12.80
2016,07,14,02,49,12.80
2016,07,14,02,50,12.80
2016,07,14,02,51,12.80
2016,07,14,02,52,12.80
2016,07,14,02,53,12.80
2016,07,14,02,54,12.80
2016,07,14,02,55,12.80
2016,07,14,02,56,12.80
2016,07,14,02,57,12.70
2016,07,14,02,58,12.70
2016,07,14,02,59,12.70
2016,07,14,03,00,12.70
2016,07,14,03,01,12.70
2016,07,14,03,02,12.70
2016,07,14,03,03,12.70
2016,07,14,03,04,12.70
2016,07,14,03,05,12.70
2016,07,14,03,06,12.70
2016,07,14,03,07,12.70
2016,07,14,03,08,12.70
2016,07,14,03,09,12.70
2016,07,14,03,10,12.70
2016,07,14,03,11,12.60
2016,07,14,03,12,12.60
2016,07,14,03,13,12.60
2016,07,14,03,14,12.60
2016,07,14,03,15,12.60
2016,07,14,03,16,12.60
2016,07,14,03,17,12.60
2016,07,14,03,18,12.60
2016,07,14,03,19,12.50
2016,07,14,03,20,12.50
2016,07,14,03,21,12.50
2016,07,14,03,22,12.50
2016,07,14,03,23,12.40
2016,07,14,03,24,12.40
2016,07,14,03,25,12.40
2016,07,14,03,26,12.40
2016,07,14,03,27,12.40
2016,07,14,03,28,12.40
2016,07,14,03,29,12.30
2016,07,14,03,30,12.30
2016,07,14,03,31,12.30
2016,07,14,03,32,12.30
2016,07,14,03,33,12.30
2016,07,14,03,34,12.30
2016,07,14,03,35,12.20
2016,07,14,03,36,12.20
2016,07,14,03,37,12.20
2016,07,14,03,38,12.20
2016,07,14,03,39,12.20
2016,07,14,03,40,12.20
2016,07,14,03,41,12.20
2016,07,14,03,42,12.20
2016,07,14,03,43,12.10
2016,07,14,03,44,12.10
2016,07,14,03,45,12.10
2016,07,14,03,46,12.10
2016,07,14,03,47,12.10
2016,07,14,03,48,12.10
2016,07,14,03,49,12.00
2016,07,14,03,50,12.00
2016,07,14,03,51,12.00
2016,07,14,03,52,12.00
2016,07,14,03,53,12.00
2016,07,14,03,54,12.00
2016,07,14,03,55,11.90
2016,07,14,03,56,11.90
2016,07,14,03,57,11.90
2016,07,14,03,58,11.90
2016,07,14,03,59,11.90
2016,07,14,04,00,11.90
2016,07,14,04,01,11.90
2016,07,14,04,02,11.90
2016,07,14,04,03,11.90
2016,07,14,04,04,11.90
2016,07,14,04,05,11.90
2016,07,14,04,06,11.80
2016,07,14,04,07,11.80
2016,07,14,04,08,11.80
2016,07,14,04,09,11.80
2016,07,14,04,10,11.80
2016,07,14,04,11,11.80
2016,07,14,04,12,11.80
2016,07,14,04,13,11.80
2016,07,14,04,14,11.80
2016,07,14,04,15,11.80
2016,07,14,04,16,11.80
2016,07,14,04,17,11.80
2016,07,14,04,18,11.80
2016,07,14,04,19,11.80
2016,07,14,04,20,11.80
2016,07,14,04,21,11.80
2016,07,14,04,22,11.80
2016,07,14,04,23,11.80
2016,07,14,04,24,11.80
2016,07,14,04,25,11.80
2016,07,14,04,26,11.80
2016,07,14,04,27,11.80
2016,07,14,04,28,11.80
2016,07,14,04,29,11.90
2016,07,14,04,30,11.90
2016,07,14,04,31,11.90
2016,07,14,04,32,11.90
2016,07,14,04,33,12.00
2016,07,14,04,34,12.00
2016,07,14,04,35,12.00
2016,07,14,04,36,12.10
2016,07,14,04,37,12.10
2016,07,14,04,38,12.10
2016,07,14,04,39,12.10
2016,07,14,04,40,12.10
2016,07,14,04,41,12.00
2016,07,14,04,42,12.00
2016,07,14,04,43,12.00
2016,07,14,04,44,12.10
2016,07,14,04,45,12.10
2016,07,14,04,46,12.00
2016,07,14,04,47,12.00
2016,07,14,04,48,12.00
2016,07,14,04,49,12.00
2016,07,14,04,50,12.00
2016,07,14,04,51,12.00
2016,07,14,04,52,12.00
2016,07,14,04,53,12.00
2016,07,14,04,54,12.10
2016,07,14,04,55,12.10
2016,07,14,04,56,12.10
2016,07,14,04,57,12.10
2016,07,14,04,58,12.10
2016,07,14,04,59,12.10
2016,07,14,05,00,12.10
2016,07,14,05,01,12.10
2016,07,14,05,02,12.10
2016,07,14,05,03,12.10
2016,07,14,05,04,12.10
2016,07,14,05,05,12.10
2016,07,14,05,06,12.10
2016,07,14,05,07,12.10
2016,07,14,05,08,12.10
2016,07,14,05,09,12.10
2016,07,14,05,10,12.10
2016,07,14,05,11,12.10
2016,07,14,05,12,12.10
2016,07,14,05,13,12.10
2016,07,14,05,14,12.10
2016,07,14,05,15,12.10
2016,07,14,05,16,12.10
2016,07,14,05,17,12.10
2016,07,14,05,18,12.10
2016,07,14,05,19,12.10
2016,07,14,05,20,12.10
2016,07,14,05,21,12.10
2016,07,14,05,22,12.10
2016,07,14,05,23,12.10
2016,07,14,05,24,12.10
2016,07,14,05,25,12.10
2016,07,14,05,26,12.10
2016,07,14,05,27,12.10
2016,07,14,05,28,12.10
2016,07,14,05,29,12.10
2016,07,14,05,30,12.10
2016,07,14,05,31,12.10
2016,07,14,05,32,12.10
2016,07,14,05,33,12.10
2016,07,14,05,34,12.10
2016,07,14,05,35,12.10
2016,07,14,05,36,12.10
2016,07,14,05,37,12.10
2016,07,14,05,38,12.10
2016,07,14,05,39,12.10
2016,07,14,05,40,12.00
2016,07,14,05,41,12.00
2016,07,14,05,42,12.10
2016,07,14,05,43,12.00
2016,07,14,05,44,12.00
2016,07,14,05,45,12.00
2016,07,14,05,46,12.00
2016,07,14,05,47,12.00
2016,07,14,05,48,12.00
2016,07,14,05,49,12.00
2016,07,14,05,50,12.00
2016,07,14,05,51,11.90
2016,07,14,05,52,11.90
2016,07,14,05,53,12.00
2016,07,14,05,54,12.00
2016,07,14,05,55,12.00
2016,07,14,05,56,12.00
2016,07,14,05,57,12.00
2016,07,14,05,58,12.00
2016,07,14,05,59,11.90
2016,07,14,06,00,11.90
2016,07,14,06,01,11.90
2016,07,14,06,02,11.90
2016,07,14,06,03,11.90
2016,07,14,06,04,11.90
2016,07,14,06,05,11.90
2016,07,14,06,06,11.90
2016,07,14,06,07,11.90
2016,07,14,06,08,11.90
2016,07,14,06,09,11.90
2016,07,14,06,10,12.00
2016,07,14,06,11,12.00
2016,07,14,06,12,12.00
2016,07,14,06,13,12.10
2016,07,14,06,14,12.10
2016,07,14,06,15,12.10
2016,07,14,06,16,12.10
2016,07,14,06,17,12.10
2016,07,14,06,18,12.20
2016,07,14,06,19,12.20
2016,07,14,06,20,12.20
2016,07,14,06,21,12.20
2016,07,14,06,22,12.20
2016,07,14,06,23,12.20
2016,07,14,06,24,12.20
2016,07,14,06,25,12.20
2016,07,14,06,26,12.30
2016,07,14,06,27,12.30
2016,07,14,06,28,12.30
2016,07,14,06,29,12.30
2016,07,14,06,30,12.30
2016,07,14,06,31,12.30
2016,07,14,06,32,12.30
2016,07,14,06,33,12.30
2016,07,14,06,34,12.30
2016,07,14,06,35,12.30
2016,07,14,06,36,12.40
2016,07,14,06,37,12.40
2016,07,14,06,38,12.50
2016,07,14,06,39,12.50
2016,07,14,06,40,12.50
2016,07,14,06,41,12.60
2016,07,14,06,42,12.60
2016,07,14,06,43,12.70
2016,07,14,06,44,12.70
2016,07,14,06,45,12.70
2016,07,14,06,46,12.70
2016,07,14,06,47,12.70
2016,07,14,06,48,12.80
2016,07,14,06,49,12.80
2016,07,14,06,50,12.80
2016,07,14,06,51,12.80
2016,07,14,06,52,12.90
2016,07,14,06,53,12.90
2016,07,14,06,54,12.90
2016,07,14,06,55,12.90
2016,07,14,06,56,12.90
2016,07,14,06,57,13.00
2016,07,14,06,58,13.00
2016,07,14,06,59,13.10
2016,07,14,07,00,13.10
2016,07,14,07,01,13.10
2016,07,14,07,02,13.10
2016,07,14,07,03,13.20
2016,07,14,07,04,13.20
2016,07,14,07,05,13.20
2016,07,14,07,06,13.20
2016,07,14,07,07,13.30
2016,07,14,07,08,13.30
2016,07,14,07,09,13.30
2016,07,14,07,10,13.30
2016,07,14,07,11,13.30
2016,07,14,07,12,13.30
2016,07,14,07,13,13.30
2016,07,14,07,14,13.40
2016,07,14,07,15,13.40
2016,07,14,07,16,13.40
2016,07,14,07,17,13.50
2016,07,14,07,18,13.50
2016,07,14,07,19,13.50
2016,07,14,07,20,13.50
2016,07,14,07,21,13.60
2016,07,14,07,22,13.60
2016,07,14,07,23,13.60
2016,07,14,07,24,13.60
2016,07,14,07,25,13.60
2016,07,14,07,26,13.60
2016,07,14,07,27,13.70
2016,07,14,07,28,13.70
2016,07,14,07,29,13.70
2016,07,14,07,30,13.70
2016,07,14,07,31,13.70
2016,07,14,07,32,13.80
2016,07,14,07,33,13.80
2016,07,14,07,34,13.80
2016,07,14,07,35,13.80
2016,07,14,07,36,13.80
2016,07,14,07,37,13.80
2016,07,14,07,38,13.90
2016,07,14,07,39,13.90
2016,07,14,07,40,13.90
2016,07,14,07,41,13.90
2016,07,14,07,42,13.90
2016,07,14,07,43,14.00
2016,07,14,07,44,14.00
2016,07,14,07,45,14.00
2016,07,14,07,46,14.10
2016,07,14,07,47,14.10
2016,07,14,07,48,14.10
2016,07,14,07,49,14.10
2016,07,14,07,50,14.20
2016,07,14,07,51,14.20
2016,07,14,07,52,14.20
2016,07,14,07,53,14.20
2016,07,14,07,54,14.30
2016,07,14,07,55,14.30
2016,07,14,07,56,14.30
2016,07,14,07,57,14.40
2016,07,14,07,58,14.40
2016,07,14,07,59,14.40
2016,07,14,08,00,14.40
2016,07,14,08,01,14.50
2016,07,14,08,02,14.50
2016,07,14,08,03,14.50
2016,07,14,08,04,14.50
2016,07,14,08,05,14.60
2016,07,14,08,06,14.60
2016,07,14,08,07,14.60
2016,07,14,08,08,14.70
2016,07,14,08,09,14.70
2016,07,14,08,10,14.70
2016,07,14,08,11,14.80
2016,07,14,08,12,14.80
2016,07,14,08,13,14.80
2016,07,14,08,14,14.80
2016,07,14,08,15,14.80
2016,07,14,08,16,14.90
2016,07,14,08,17,14.90
2016,07,14,08,18,14.90
2016,07,14,08,19,14.90
2016,07,14,08,20,14.90
2016,07,14,08,21,15.00
2016,07,14,08,22,15.00
2016,07,14,08,23,15.00
2016,07,14,08,24,15.00
2016,07,14,08,25,15.00
2016,07,14,08,26,15.10
2016,07,14,08,27,15.10
2016,07,14,08,28,15.10
2016,07,14,08,29,15.10
2016,07,14,08,30,15.10
2016,07,14,08,31,15.10
2016,07,14,08,32,15.10
2016,07,14,08,33,15.20
2016,07,14,08,34,15.20
2016,07,14,08,35,15.20
2016,07,14,08,36,15.20
2016,07,14,08,37,15.30
2016,07,14,08,38,15.30
2016,07,14,08,39,15.40
2016,07,14,08,40,15.40
2016,07,14,08,41,15.60
2016,07,14,08,42,15.70
2016,07,14,08,43,15.80
2016,07,14,08,44,15.90
2016,07,14,08,45,16.00
2016,07,14,08,46,16.10
2016,07,14,08,47,16.20
2016,07,14,08,48,16.30
2016,07,14,08,49,16.40
2016,07,14,08,50,16.50
2016,07,14,08,51,16.60
2016,07,14,08,52,16.70
2016,07,14,08,53,16.80
2016,07,14,08,54,16.90
2016,07,14,08,55,17.00
2016,07,14,08,56,17.10
2016,07,14,08,57,17.20
2016,07,14,08,58,17.30
2016,07,14,08,59,17.40
2016,07,14,09,00,17.50
2016,07,14,09,01,17.60
2016,07,14,09,02,17.70
2016,07,14,09,03,17.80
2016,07,14,09,04,17.80
2016,07,14,09,05,17.90
2016,07,14,09,06,17.90
2016,07,14,09,07,17.80
2016,07,14,09,08,17.80
2016,07,14,09,09,17.70
2016,07,14,09,10,17.70
2016,07,14,09,11,17.70
2016,07,14,09,12,17.70
2016,07,14,09,13,17.80
2016,07,14,09,14,17.80
2016,07,14,09,15,17.70
2016,07,14,09,16,17.80
2016,07,14,09,17,17.80
2016,07,14,09,18,17.90
2016,07,14,09,19,18.00
2016,07,14,09,20,18.10
2016,07,14,09,21,18.20
2016,07,14,09,22,18.30
2016,07,14,09,23,18.40
2016,07,14,09,24,18.50
2016,07,14,09,25,18.60
2016,07,14,09,26,18.60
2016,07,14,09,27,18.60
2016,07,14,09,28,18.60
2016,07,14,09,29,18.60
2016,07,14,09,30,18.60
2016,07,14,09,31,18.60
2016,07,14,09,32,18.70
2016,07,14,09,33,18.70
2016,07,14,09,34,18.70
2016,07,14,09,35,18.70
2016,07,14,09,36,18.70
2016,07,14,09,37,18.80
2016,07,14,09,38,18.80
2016,07,14,09,39,18.90
2016,07,14,09,40,19.00
2016,07,14,09,41,19.10
2016,07,14,09,42,19.20
2016,07,14,09,43,19.30
2016,07,14,09,44,19.30
2016,07,14,09,45,19.30
2016,07,14,09,46,19.20
2016,07,14,09,47,19.10
2016,07,14,09,48,19.10
2016,07,14,09,49,19.10
2016,07,14,09,50,19.10
2016,07,14,09,51,19.10
2016,07,14,09,52,19.10
2016,07,14,09,53,19.10
2016,07,14,09,54,19.10
2016,07,14,09,55,19.10
2016,07,14,09,56,19.10
2016,07,14,09,57,19.10
2016,07,14,09,58,19.20
2016,07,14,09,59,19.20
2016,07,14,10,00,19.20
2016,07,14,10,01,19.20
2016,07,14,10,02,19.20
2016,07,14,10,03,19.20
2016,07,14,10,04,19.20
2016,07,14,10,05,19.20
2016,07,14,10,06,19.10
2016,07,14,10,07,19.10
2016,07,14,10,08,19.10
2016,07,14,10,09,19.10
2016,07,14,10,10,19.10
2016,07,14,10,11,19.10
2016,07,14,10,12,19.20
2016,07,14,10,13,19.20
2016,07,14,10,14,19.30
2016,07,14,10,15,19.30
2016,07,14,10,16,19.40
2016,07,14,10,17,19.40
2016,07,14,10,18,19.40
2016,07,14,10,19,19.40
2016,07,14,10,20,19.40
2016,07,14,10,21,19.40
2016,07,14,10,22,19.50
2016,07,14,10,23,19.50
2016,07,14,10,24,19.60
2016,07,14,10,25,19.70
2016,07,14,10,26,19.80
2016,07,14,10,27,19.80
2016,07,14,10,28,19.80
2016,07,14,10,29,19.80
2016,07,14,10,30,19.80
2016,07,14,10,31,19.80
2016,07,14,10,32,19.80
2016,07,14,10,33,19.80
2016,07,14,10,34,19.80
2016,07,14,10,35,19.80
2016,07,14,10,36,19.90
2016,07,14,10,37,19.90
2016,07,14,10,38,19.90
2016,07,14,10,39,20.00
2016,07,14,10,40,20.00
2016,07,14,10,41,20.10
2016,07,14,10,42,20.20
2016,07,14,10,43,20.30
2016,07,14,10,44,20.30
2016,07,14,10,45,20.30
2016,07,14,10,46,20.20
2016,07,14,10,47,20.10
2016,07,14,10,48,19.90
2016,07,14,10,49,19.80
2016,07,14,10,50,19.80
2016,07,14,10,51,19.80
2016,07,14,10,52,19.80
2016,07,14,10,53,19.90
2016,07,14,10,54,19.90
2016,07,14,10,55,20.00
2016,07,14,10,56,20.00
2016,07,14,10,57,20.00
2016,07,14,10,58,20.00
2016,07,14,10,59,20.10
2016,07,14,11,00,20.10
2016,07,14,11,01,20.10
2016,07,14,11,02,20.10
2016,07,14,11,03,20.00
2016,07,14,11,04,20.10
2016,07,14,11,05,20.20
2016,07,14,11,06,20.20
2016,07,14,11,07,20.20
2016,07,14,11,08,20.30
2016,07,14,11,09,20.40
2016,07,14,11,10,20.60
2016,07,14,11,11,20.70
2016,07,14,11,12,20.90
2016,07,14,11,13,20.80
2016,07,14,11,14,20.80
2016,07,14,11,15,20.80
2016,07,14,11,16,20.80
2016,07,14,11,17,20.90
2016,07,14,11,18,21.00
2016,07,14,11,19,21.10
2016,07,14,11,20,21.20
2016,07,14,11,21,21.30
2016,07,14,11,22,21.40
2016,07,14,11,23,21.40
2016,07,14,11,24,21.50
2016,07,14,11,25,21.60
2016,07,14,11,26,21.70
2016,07,14,11,27,21.80
2016,07,14,11,28,21.80
2016,07,14,11,29,21.90
2016,07,14,11,30,21.80
2016,07,14,11,31,21.80
2016,07,14,11,32,21.70
2016,07,14,11,33,21.60
2016,07,14,11,34,21.60
2016,07,14,11,35,21.60
2016,07,14,11,36,21.60
2016,07,14,11,37,21.60
2016,07,14,11,38,21.60
2016,07,14,11,39,21.70
2016,07,14,11,40,21.70
2016,07,14,11,41,21.70
2016,07,14,11,42,21.70
2016,07,14,11,43,21.70
2016,07,14,11,44,21.70
2016,07,14,11,45,21.60
2016,07,14,11,46,21.50
2016,07,14,11,47,21.50
2016,07,14,11,48,21.50
2016,07,14,11,49,21.60
2016,07,14,11,50,21.60
2016,07,14,11,51,21.50
2016,07,14,11,52,21.40
2016,07,14,11,53,21.40
2016,07,14,11,54,21.50
2016,07,14,11,55,21.50
2016,07,14,11,56,21.60
2016,07,14,11,57,21.60
2016,07,14,11,58,21.60
2016,07,14,11,59,21.60
2016,07,14,12,00,21.60
2016,07,14,12,01,21.60
2016,07,14,12,02,21.70
2016,07,14,12,03,21.80
2016,07,14,12,04,21.90
2016,07,14,12,05,22.10
2016,07,14,12,06,22.20
2016,07,14,12,07,22.40
2016,07,14,12,08,22.50
2016,07,14,12,09,22.50
2016,07,14,12,10,22.60
2016,07,14,12,11,22.50
2016,07,14,12,12,22.40
2016,07,14,12,13,22.30
2016,07,14,12,14,22.30
2016,07,14,12,15,22.20
2016,07,14,12,16,22.20
2016,07,14,12,17,22.00
2016,07,14,12,18,22.00
2016,07,14,12,19,21.90
2016,07,14,12,20,21.90
2016,07,14,12,21,21.90
2016,07,14,12,22,21.90
2016,07,14,12,23,22.00
2016,07,14,12,24,22.10
2016,07,14,12,25,22.10
2016,07,14,12,26,22.20
2016,07,14,12,27,22.20
2016,07,14,12,28,22.00
2016,07,14,12,29,21.90
2016,07,14,12,30,21.90
2016,07,14,12,31,21.80
2016,07,14,12,32,21.80
2016,07,14,12,33,21.70
2016,07,14,12,34,21.70
2016,07,14,12,35,21.70
2016,07,14,12,36,21.70
2016,07,14,12,37,21.70
2016,07,14,12,38,21.80
2016,07,14,12,39,21.80
2016,07,14,12,40,21.80
2016,07,14,12,41,21.80
2016,07,14,12,42,21.70
2016,07,14,12,43,21.70
2016,07,14,12,44,21.70
2016,07,14,12,45,21.60
2016,07,14,12,46,21.70
2016,07,14,12,47,21.80
2016,07,14,12,48,22.00
2016,07,14,12,49,22.10
2016,07,14,12,50,22.10
2016,07,14,12,51,22.00
2016,07,14,12,52,22.00
2016,07,14,12,53,21.90
2016,07,14,12,54,21.80
2016,07,14,12,55,21.70
2016,07,14,12,56,21.70
2016,07,14,12,57,21.60
2016,07,14,12,58,21.50
2016,07,14,12,59,21.40
2016,07,14,13,00,21.40
2016,07,14,13,01,21.20
2016,07,14,13,02,21.10
2016,07,14,13,03,21.10
2016,07,14,13,04,21.00
2016,07,14,13,05,21.00
2016,07,14,13,06,21.10
2016,07,14,13,07,21.20
2016,07,14,13,08,21.30
2016,07,14,13,09,21.40
2016,07,14,13,10,21.50
2016,07,14,13,11,21.60
2016,07,14,13,12,21.60
2016,07,14,13,13,21.50
2016,07,14,13,14,21.40
2016,07,14,13,15,21.20
2016,07,14,13,16,21.20
2016,07,14,13,17,21.30
2016,07,14,13,18,21.40
2016,07,14,13,19,21.50
2016,07,14,13,20,21.60
2016,07,14,13,21,21.60
2016,07,14,13,22,21.60
2016,07,14,13,23,21.70
2016,07,14,13,24,21.70
2016,07,14,13,25,21.80
2016,07,14,13,26,21.90
2016,07,14,13,27,21.90
2016,07,14,13,28,21.90
2016,07,14,13,29,22.00
2016,07,14,13,30,22.00
2016,07,14,13,31,22.10
2016,07,14,13,32,22.00
2016,07,14,13,33,21.90
2016,07,14,13,34,21.90
2016,07,14,13,35,21.90
2016,07,14,13,36,22.00
2016,07,14,13,37,22.10
2016,07,14,13,38,22.10
2016,07,14,13,39,22.10
2016,07,14,13,40,22.20
2016,07,14,13,41,22.20
2016,07,14,13,42,22.30
2016,07,14,13,43,22.30
2016,07,14,13,44,22.20
2016,07,14,13,45,22.10
2016,07,14,13,46,22.00
2016,07,14,13,47,21.90
2016,07,14,13,48,21.90
2016,07,14,13,49,21.90
2016,07,14,13,50,21.90
2016,07,14,13,51,21.90
2016,07,14,13,52,21.90
2016,07,14,13,53,22.00
2016,07,14,13,54,22.10
2016,07,14,13,55,22.10
2016,07,14,13,56,22.20
2016,07,14,13,57,22.20
2016,07,14,13,58,22.10
2016,07,14,13,59,22.10
2016,07,14,14,00,22.20
2016,07,14,14,01,22.10
2016,07,14,14,02,22.10
2016,07,14,14,03,22.20
2016,07,14,14,04,22.30
2016,07,14,14,05,22.30
2016,07,14,14,06,22.30
2016,07,14,14,07,22.20
2016,07,14,14,08,22.00
2016,07,14,14,09,22.00
2016,07,14,14,10,22.00
2016,07,14,14,11,21.90
2016,07,14,14,12,21.90
2016,07,14,14,13,21.80
2016,07,14,14,14,21.80
2016,07,14,14,15,21.70
2016,07,14,14,16,21.70
2016,07,14,14,17,21.70
2016,07,14,14,18,21.70
2016,07,14,14,19,21.80
2016,07,14,14,20,21.80
2016,07,14,14,21,21.80
2016,07,14,14,22,21.80
2016,07,14,14,23,21.90
2016,07,14,14,24,21.90
2016,07,14,14,25,22.00
2016,07,14,14,26,22.00
2016,07,14,14,27,22.10
2016,07,14,14,28,22.10
2016,07,14,14,29,22.00
2016,07,14,14,30,21.90
2016,07,14,14,31,21.90
2016,07,14,14,32,21.80
2016,07,14,14,33,21.80
2016,07,14,14,34,21.80
2016,07,14,14,35,21.70
2016,07,14,14,36,21.70
2016,07,14,14,37,21.70
2016,07,14,14,38,21.70
2016,07,14,14,39,21.70
2016,07,14,14,40,21.70
2016,07,14,14,41,21.70
2016,07,14,14,42,21.70
2016,07,14,14,43,21.80
2016,07,14,14,44,21.80
2016,07,14,14,45,21.80
2016,07,14,14,46,21.80
2016,07,14,14,47,21.80
2016,07,14,14,48,21.80
2016,07,14,14,49,21.70
2016,07,14,14,50,21.70
2016,07,14,14,51,21.70
2016,07,14,14,52,21.70
2016,07,14,14,53,21.70
2016,07,14,14,54,21.60
2016,07,14,14,55,21.60
2016,07,14,14,56,21.60
2016,07,14,14,57,21.60
2016,07,14,14,58,21.50
2016,07,14,14,59,21.50
2016,07,14,15,00,21.50
2016,07,14,15,01,21.50
2016,07,14,15,02,21.50
2016,07,14,15,03,21.60
2016,07,14,15,04,21.60
2016,07,14,15,05,21.60
2016,07,14,15,06,21.60
2016,07,14,15,07,21.70
2016,07,14,15,08,21.80
2016,07,14,15,09,21.80
2016,07,14,15,10,21.80
2016,07,14,15,11,21.80
2016,07,14,15,12,21.90
2016,07,14,15,13,22.00
2016,07,14,15,14,22.10
2016,07,14,15,15,22.20
2016,07,14,15,16,22.20
2016,07,14,15,17,22.20
2016,07,14,15,18,22.20
2016,07,14,15,19,22.10
2016,07,14,15,20,22.00
2016,07,14,15,21,21.90
2016,07,14,15,22,21.90
2016,07,14,15,23,21.90
2016,07,14,15,24,21.80
2016,07,14,15,25,21.80
2016,07,14,15,26,21.80
2016,07,14,15,27,21.90
2016,07,14,15,28,21.90
2016,07,14,15,29,21.80
2016,07,14,15,30,21.70
2016,07,14,15,31,21.60
2016,07,14,15,32,21.60
2016,07,14,15,33,21.60
2016,07,14,15,34,21.60
2016,07,14,15,35,21.60
2016,07,14,15,36,21.60
2016,07,14,15,37,21.50
2016,07,14,15,38,21.40
2016,07,14,15,39,21.40
2016,07,14,15,40,21.50
2016,07,14,15,41,21.60
2016,07,14,15,42,21.60
2016,07,14,15,43,21.70
2016,07,14,15,44,21.70
2016,07,14,15,45,21.70
2016,07,14,15,46,21.80
2016,07,14,15,47,21.80
2016,07,14,15,48,21.80
2016,07,14,15,49,21.80
2016,07,14,15,50,21.80
2016,07,14,15,51,21.90
2016,07,14,15,52,21.90
2016,07,14,15,53,22.00
2016,07,14,15,54,22.10
2016,07,14,15,55,22.00
2016,07,14,15,56,22.00
2016,07,14,15,57,21.90
2016,07,14,15,58,21.90
2016,07,14,15,59,21.90
2016,07,14,16,00,21.90
2016,07,14,16,01,21.90
2016,07,14,16,02,21.90
2016,07,14,16,03,21.90
2016,07,14,16,04,21.90
2016,07,14,16,05,22.00
2016,07,14,16,06,22.00
2016,07,14,16,07,22.10
2016,07,14,16,08,22.10
2016,07,14,16,09,22.10
2016,07,14,16,10,22.10
2016,07,14,16,11,22.10
2016,07,14,16,12,22.10
2016,07,14,16,13,22.10
2016,07,14,16,14,22.10
2016,07,14,16,15,22.20
2016,07,14,16,16,22.20
2016,07,14,16,17,22.20
2016,07,14,16,18,22.20
2016,07,14,16,19,22.20
2016,07,14,16,20,22.20
2016,07,14,16,21,22.20
2016,07,14,16,22,22.20
2016,07,14,16,23,22.20
2016,07,14,16,24,22.20
2016,07,14,16,25,22.20
2016,07,14,16,26,22.20
2016,07,14,16,27,22.30
2016,07,14,16,28,22.30
2016,07,14,16,29,22.40
2016,07,14,16,30,22.40
2016,07,14,16,31,22.40
2016,07,14,16,32,22.30
2016,07,14,16,33,22.30
2016,07,14,16,34,22.30
2016,07,14,16,35,22.30
2016,07,14,16,36,22.30
2016,07,14,16,37,22.20
2016,07,14,16,38,22.10
2016,07,14,16,39,22.10
2016,07,14,16,40,22.10
2016,07,14,16,41,22.10
2016,07,14,16,42,22.10
2016,07,14,16,43,22.00
2016,07,14,16,44,21.90
2016,07,14,16,45,21.80
2016,07,14,16,46,21.80
2016,07,14,16,47,21.80
2016,07,14,16,48,21.90
2016,07,14,16,49,21.90
2016,07,14,16,50,21.90
2016,07,14,16,51,22.00
2016,07,14,16,52,22.00
2016,07,14,16,53,22.10
2016,07,14,16,54,22.10
2016,07,14,16,55,22.10
2016,07,14,16,56,22.10
2016,07,14,16,57,22.10
2016,07,14,16,58,22.10
2016,07,14,16,59,22.10
2016,07,14,17,00,22.10
2016,07,14,17,01,22.00
2016,07,14,17,02,22.00
2016,07,14,17,03,21.90
2016,07,14,17,04,21.90
2016,07,14,17,05,21.90
2016,07,14,17,06,21.90
2016,07,14,17,07,21.80
2016,07,14,17,08,21.90
2016,07,14,17,09,21.90
2016,07,14,17,10,21.90
2016,07,14,17,11,21.90
2016,07,14,17,12,21.90
2016,07,14,17,13,21.90
2016,07,14,17,14,21.90
2016,07,14,17,15,21.90
2016,07,14,17,16,21.80
2016,07,14,17,17,21.80
2016,07,14,17,18,21.70
2016,07,14,17,19,21.70